FENGYUN 1C DEB

Satellite information

Favourite Embed

Satellite Type and Status

DEBRISIN ORBIT

Key statistics

Satellite FENGYUN 1C DEB at a glance.

Uptime

9556

Days in orbit

Revolutions

≈ 14.0

Per day

Orbit

SSO

Sun Synchronous Orbit

Inclination

98.6

Latest

Satellite identification and parameters

Extended collection of information and parameters for FENGYUN 1C DEB.

Object identification

Identified? True

Debris? True

Object name: FENGYUN 1C DEB

International designator: 1999-025DGN

Object number (NORAD): 33701

Object ID (CCSDS): 33701

Country: PEOPLES REPUBLIC OF CHINA (PRC)

Current information (Y/N): Y

RCS size: SMALL

Orbital parameters

Period: 102.763 minutes

Inclination: 98.6467 deg

SMA: 7267.485 km

Apoapsis: 986.466 km

Periapsis: 792.234 km

RAAN: 149.1728 deg

Eccentricy: 0.0133631

Argument of periapsis: 278.4492 deg

Mean anomaly: 80.1547 deg

Mean motion: 14.0128515 rev/day

Mean motion (dot): 0.00001633 rev/day2

B* drag term: 0.0010298 1/REarth

Two-line elements (TLE)

Creation date: July 6, 2025, 4:10 a.m.

Reference frame: TEME

Reference center: EARTH

Epoch: July 5, 2025, 4:22 p.m. UTC

TLE line 0: 0 FENGYUN 1C DEB

TLE line 1: 1 33701U 99025DGN 25186.68206642 .00001633 00000-0 10298-2 0 9990

TLE line 2: 2 33701 98.6467 149.1728 0133631 278.4492 80.1547 14.01285150882630

Live tracking on map

Real-time ground track for satellite FENGYUN 1C DEB.

In-orbit conjunctions

A list of the most updated potential collisions computed for object FENGYUN 1C DEB.

Target Orbit TCA Probability of collision Miss distance Type
CZ-6A DEB LEO 2025-01-12 09:32:32 0.0002076573 645.0 (m) DEBRIS
SL-8 R/B LEO 2024-11-10 15:13:31 0.0001384424 100.0 (m) ROCKET BODY
TATIANA LEO 2024-09-16 12:24:45 0.0001168815 706.0 (m) PAYLOAD

Associated space launch

Chinese polar orbiting meteorological satellite

FENGYUN 1C DEB was lifted into orbit during the mission ‘Long March 4B | Feng Yun 1C’, on board a Long March 4B space rocket.

The launch took place on May 10, 1999, 1:33 a.m. from Launch Complex 7.

For more information about the launch, click the button.

Launch to space Long March 4B | Feng Yun 1C
Long March 4B | Feng Yun 1C

Agency: N/A

Status: Launch Successful

Launch date: May 10, 1999, 1:33 a.m. UTC

Rocket: Long March 4B

Launch pad: Launch Complex 7

Location: Taiyuan Satellite Launch Center, People's Republic of China

...

Latest news about this satellite

There are no fresh news available about this satellite. Check back as we update our databases every day.


Newsletter sign-up

Weekly statistics, charts and insights to help you stay on top of the space industry.